Weather History for KPCZ - November, 2013

Change the Weather History Date:

Tuesday, November 26, 2013

  Actual Average Record
Temperature  
Mean Temperature 24 °F -  
Max Temperature 36 °F 38 °F 57 °F (1960)
Min Temperature 13 °F 24 °F -6 °F (1977)
Degree Days  
Heating Degree Days 40    
Moisture  
Dew Point 11 °F    
Average Humidity 53    
Maximum Humidity 72    
Minimum Humidity 34    
Precipitation  
Precipitation 0.00 in - - ()
Sea Level Pressure  
Sea Level Pressure 30.07 in    
Wind  
Wind Speed 9 mph (WNW)    
Max Wind Speed 16 mph    
Max Gust Speed 26 mph    
Visibility 10 miles    
Events Snow    
Averages and records for this station are not official NWS values.
T = Trace of Precipitation, MM = Missing Value Source: NWS Daily Summary

Daily Weather History Graph

Daily Weather History Graph

Search for Another Location

Airport or City:

Trip Planner

Search our weather history database for the weather conditions in past years. The results will help you decide how hot, cold, wet, or windy it might be!

Date:

Astronomy

Nov. 26, 2013 Rise Set
Actual Time 7:06 AM CST 4:20 PM CST
Civil Twilight 6:34 AM CST 4:52 PM CST
Nautical Twilight 5:58 AM CST 5:28 PM CST
Astronomical Twilight 5:23 AM CST 6:03 PM CST
Moon No Moon Rise 12:40 PM CST (11/26)
Length of Visible Light 10h 18m
Length of Day
9h 14m
Last Quarter, 41% of the Moon is Illuminated
Nov 26
Last Quarter
Dec 2
New
Dec 9
First Quarter
Dec 17
Full
Dec 25
Last Quarter

Hourly Weather History & Observations

Time (CST) Temp. Windchill Dew Point Humidity Pressure Visibility Wind Dir Wind Speed Gust Speed Precip Events Conditions
12:15 AM 33.8 °F 28.6 °F 25.5 °F 72% 29.96 in 10.0 mi SW 5.8 mph - N/A   Overcast
12:35 AM 33.8 °F 28.6 °F 25.2 °F 71% 29.96 in 10.0 mi SW 5.8 mph - N/A   Overcast
12:55 AM 33.8 °F 28.6 °F 24.8 °F 70% 29.96 in 10.0 mi SW 5.8 mph - N/A   Overcast
1:15 AM 34.0 °F 28.8 °F 24.8 °F 69% 29.95 in 10.0 mi SW 5.8 mph - N/A   Overcast
1:35 AM 34.0 °F 29.8 °F 24.4 °F 68% 29.95 in 10.0 mi SW 4.6 mph - N/A   Overcast
1:55 AM 34.2 °F 29.0 °F 24.4 °F 68% 29.96 in 10.0 mi WSW 5.8 mph - N/A   Overcast
2:15 AM 35.1 °F 29.3 °F 24.1 °F 64% 29.96 in 10.0 mi WSW 6.9 mph - N/A   Overcast
2:35 AM 35.8 °F 30.9 °F 23.4 °F 61% 29.96 in 10.0 mi West 5.8 mph - N/A   Overcast
2:55 AM 35.8 °F 28.3 °F 23.4 °F 61% 29.96 in 10.0 mi West 10.4 mph - N/A   Overcast
3:15 AM 36.0 °F 29.6 °F 23.0 °F 59% 29.96 in 10.0 mi West 8.1 mph - N/A   Overcast
3:35 AM 35.8 °F 27.3 °F 23.0 °F 60% 29.96 in 10.0 mi WNW 12.7 mph 17.3 mph N/A   Overcast
3:55 AM 35.1 °F 27.9 °F 21.4 °F 57% 29.97 in 10.0 mi WNW 9.2 mph 18.4 mph N/A   Overcast
4:15 AM 34.2 °F 24.8 °F 19.9 °F 56% 29.98 in 10.0 mi WNW 13.8 mph 18.4 mph N/A   Overcast
4:35 AM 33.3 °F 24.1 °F 17.4 °F 52% 29.99 in 10.0 mi WNW 12.7 mph 20.7 mph N/A   Overcast
4:55 AM 32.0 °F 22.1 °F 14.9 °F 49% 29.99 in 10.0 mi WNW 13.8 mph 24.2 mph N/A   Overcast
5:15 AM 32.0 °F 23.6 °F 14.7 °F 49% 30.00 in 10.0 mi West 10.4 mph 16.1 mph N/A   Overcast
5:35 AM 31.8 °F 22.8 °F 14.4 °F 49% 30.00 in 10.0 mi WNW 11.5 mph 18.4 mph N/A   Overcast
5:55 AM 31.6 °F 22.6 °F 14.9 °F 50% 30.00 in 10.0 mi WNW 11.5 mph 17.3 mph N/A   Overcast
6:15 AM 31.1 °F 21.4 °F 14.9 °F 51% 30.00 in 10.0 mi WNW 12.7 mph 17.3 mph N/A   Overcast
6:35 AM 30.6 °F 21.2 °F 15.4 °F 54% 30.00 in 10.0 mi WNW 11.5 mph 19.6 mph N/A   Overcast
6:55 AM 30.0 °F 19.5 °F 15.3 °F 54% 30.01 in 10.0 mi WNW 13.8 mph 18.4 mph N/A   Overcast
7:15 AM 29.5 °F 19.3 °F 14.9 °F 55% 30.02 in 10.0 mi NW 12.7 mph 20.7 mph N/A   Overcast
7:35 AM 28.9 °F 18.6 °F 12.4 °F 50% 30.03 in 10.0 mi NW 12.7 mph 18.4 mph N/A   Mostly Cloudy
7:55 AM 28.4 °F 20.4 °F 9.3 °F 45% 30.05 in 10.0 mi NW 8.1 mph - N/A   Clear
8:15 AM 28.4 °F 21.2 °F 6.4 °F 39% 30.05 in 10.0 mi WNW 6.9 mph - N/A   Mostly Cloudy
8:35 AM 28.2 °F 23.1 °F 4.8 °F 37% 30.06 in 10.0 mi WNW 4.6 mph - N/A   Overcast
8:55 AM 28.2 °F 22.0 °F 4.3 °F 36% 30.05 in 10.0 mi NNW 5.8 mph - N/A   Overcast
9:15 AM 29.1 °F 21.3 °F 4.3 °F 35% 30.05 in 10.0 mi NNW 8.1 mph - N/A   Overcast
9:35 AM 29.1 °F 22.1 °F 4.6 °F 35% 30.04 in 10.0 mi NNW 6.9 mph - N/A   Overcast
9:55 AM 29.3 °F 21.5 °F 5.2 °F 36% 30.04 in 10.0 mi WNW 8.1 mph - N/A   Overcast
10:15 AM 29.8 °F 22.2 °F 5.5 °F 36% 30.04 in 10.0 mi NW 8.1 mph - N/A   Mostly Cloudy
10:35 AM 31.1 °F 23.7 °F 5.4 °F 34% 30.03 in 10.0 mi NW 8.1 mph - N/A   Scattered Clouds
10:55 AM 31.6 °F 23.1 °F 6.6 °F 35% 30.03 in 10.0 mi NW 10.4 mph 17.3 mph N/A   Mostly Cloudy
11:15 AM 30.9 °F 21.2 °F 8.4 °F 39% 30.03 in 10.0 mi NW 12.7 mph 17.3 mph N/A   Overcast
11:35 AM 30.6 °F 21.8 °F 9.7 °F 42% 30.02 in 10.0 mi NW 10.4 mph - N/A   Overcast
11:55 AM 31.1 °F 21.9 °F 11.8 °F 45% 30.02 in 10.0 mi West 11.5 mph - N/A   Overcast
12:15 PM 30.2 °F 21.9 °F 12.7 °F 48% 30.02 in 10.0 mi WNW 9.2 mph - N/A   Overcast
12:35 PM 29.3 °F 19.1 °F 14.9 °F 55% 30.03 in 10.0 mi WNW 12.7 mph 16.1 mph N/A   Overcast
12:55 PM 28.4 °F 18.5 °F 19.2 °F 69% 30.03 in 3.0 mi WNW 11.5 mph - N/A Snow Light Snow
1:15 PM 27.3 °F 15.6 °F 16.2 °F 63% 30.04 in 10.0 mi WNW 15.0 mph 23.0 mph N/A   Overcast
1:35 PM 26.6 °F 14.3 °F 13.5 °F 58% 30.05 in 10.0 mi NW 16.1 mph 26.5 mph N/A   Overcast
1:55 PM 26.2 °F 15.2 °F 15.1 °F 63% 30.06 in 7.0 mi NW 12.7 mph - N/A   Overcast
2:15 PM 25.7 °F 13.5 °F 13.3 °F 59% 30.06 in 10.0 mi NW 15.0 mph 20.7 mph N/A   Overcast
2:35 PM 25.3 °F 12.6 °F 11.7 °F 56% 30.07 in 10.0 mi NW 16.1 mph - N/A   Mostly Cloudy
2:55 PM 23.9 °F 12.3 °F 9.3 °F 54% 30.08 in 10.0 mi NW 12.7 mph 21.9 mph N/A   Scattered Clouds
3:15 PM 23.7 °F 11.5 °F 9.0 °F 53% 30.10 in 10.0 mi WNW 13.8 mph 18.4 mph N/A   Scattered Clouds
3:35 PM 24.1 °F 12.0 °F 7.9 °F 50% 30.11 in 10.0 mi NW 13.8 mph 19.6 mph N/A   Mostly Cloudy
3:55 PM 23.0 °F 11.7 °F 7.3 °F 51% 30.12 in 10.0 mi NW 11.5 mph 21.9 mph N/A   Overcast
4:15 PM 22.1 °F 10.6 °F 6.3 °F 51% 30.12 in 10.0 mi NW 11.5 mph - N/A   Mostly Cloudy
4:35 PM 20.8 °F 7.9 °F 3.7 °F 48% 30.13 in 10.0 mi NW 13.8 mph 18.4 mph N/A   Scattered Clouds
4:55 PM 20.3 °F 11.5 °F 3.6 °F 48% 30.14 in 10.0 mi WNW 6.9 mph - N/A   Clear
5:15 PM 19.9 °F 7.3 °F 3.0 °F 48% 30.15 in 10.0 mi NW 12.7 mph 18.4 mph N/A   Clear
5:35 PM 19.4 °F 7.2 °F 1.9 °F 47% 30.15 in 10.0 mi NW 11.5 mph 17.3 mph N/A   Clear
5:55 PM 19.0 °F 6.8 °F 1.4 °F 46% 30.16 in 10.0 mi NW 11.5 mph - N/A   Clear
6:15 PM 18.5 °F 6.1 °F 1.9 °F 49% 30.17 in 10.0 mi NW 11.5 mph - N/A   Clear
6:35 PM 18.3 °F 6.6 °F 2.1 °F 49% 30.18 in 10.0 mi NW 10.4 mph - N/A   Clear
6:55 PM 17.8 °F 4.0 °F 2.1 °F 50% 30.18 in 10.0 mi NW 13.8 mph 20.7 mph N/A   Clear
7:15 PM 17.6 °F 4.3 °F 2.3 °F 51% 30.18 in 10.0 mi NNW 12.7 mph 19.6 mph N/A   Clear
7:35 PM 17.2 °F 5.2 °F 3.0 °F 54% 30.19 in 10.0 mi NW 10.4 mph 18.4 mph N/A   Clear
7:55 PM 17.1 °F 5.0 °F 2.7 °F 53% 30.20 in 10.0 mi NNW 10.4 mph 19.6 mph N/A   Clear
8:15 PM 16.7 °F 5.3 °F 2.3 °F 53% 30.20 in 10.0 mi NNW 9.2 mph - N/A   Clear
8:35 PM 16.3 °F 3.4 °F 2.1 °F 54% 30.20 in 10.0 mi NNW 11.5 mph 17.3 mph N/A   Clear
8:55 PM 16.0 °F 5.3 °F 2.3 °F 55% 30.20 in 10.0 mi NW 8.1 mph - N/A   Clear
9:15 PM 15.6 °F 3.2 °F 2.7 °F 57% 30.21 in 10.0 mi NW 10.4 mph - N/A   Clear
9:35 PM 15.6 °F 2.5 °F 2.8 °F 57% 30.21 in 10.0 mi NW 11.5 mph - N/A   Clear
9:55 PM 15.3 °F 3.5 °F 3.0 °F 58% 30.21 in 10.0 mi NW 9.2 mph - N/A   Clear
10:15 PM 14.9 °F 3.1 °F 3.4 °F 60% 30.21 in 10.0 mi NW 9.2 mph - N/A   Clear
10:35 PM 14.7 °F 2.9 °F 3.6 °F 61% 30.21 in 10.0 mi NW 9.2 mph - N/A   Clear
10:55 PM 14.5 °F 3.6 °F 3.9 °F 63% 30.21 in 10.0 mi NW 8.1 mph - N/A   Clear
11:15 PM 14.2 °F 3.1 °F 4.1 °F 64% 30.21 in 10.0 mi NW 8.1 mph - N/A   Clear
11:35 PM 13.8 °F 1.0 °F 4.3 °F 66% 30.21 in 10.0 mi NW 10.4 mph - N/A   Clear
11:55 PM 13.6 °F 1.6 °F 4.5 °F 67% 30.21 in 10.0 mi NW 9.2 mph - N/A   Clear